Volver al catálogo

FENGYUN 1C DEB

ActivoSSO
NORAD 30475·DEBRIS·🇨🇳 China

Lanzado May 10, 1999 desde Taiyuan Satellite Launch Center

Loading…

Próximos Pases (próximas 24 horas)

TLE

ActualizadoSource: Space-Track

Época: Sep 14, 2026, 08:25 UTC

1 30475U 99025AGN 26257.35096968  .00000881  00000-0  46127-3 0  9992
2 30475  98.7708 299.8941 0042438 222.0298 272.9746 14.16408056  8503

Sigue FENGYUN 1C DEB en tiempo real con AllMySat

Download on the App Store